Вернуться в каталог

STARLINK-32416

АктивенСвязьVLEO
NORAD 61589·PAYLOAD·🇺🇸 United States

Запущен Oct 18, 2024 с Cape Canaveral Space Force Station

Loading…

Ближайшие Пролёты (ближайшие 24 часа)

TLE

СвежийSource: CelesTrak SupGP

Эпоха: Sep 15, 2026, 03:41 UTC

1 61589C 24187R   26258.15395833 -.00051797  00000+0 -15303-2 0  2583
2 61589  53.1579 246.3658 0001397  89.8107 273.1085 15.34417356    14

Отслеживайте STARLINK-32416 в реальном времени с AllMySat

Download on the App Store